QPF
0.01 0.00 0.00 0.00 0.00 0.00 0.00 0.00 0.00 0.01 0.01 0.02 0.02 0.03 0.02 0.03 0.03 0.03 0.03 0.03 0.02 0.04 0.06 0.05 0.03 0.04 0.05 0.06 0.06 0.05 0.05 0.04 0.03 0.01 0.01 0.01 0.02 0.03 0.04 0.06 0.09 0.13 0.15 0.13
0.01 0.00 0.00 0.00 0.00 0.00 0.00 0.00 0.01 0.01 0.01 0.01 0.02 0.02 0.02 0.02 0.03 0.04 0.04 0.04 0.05 0.06 0.05 0.04 0.03 0.03 0.04 0.05 0.05 0.05 0.05 0.04 0.03 0.02 0.01 0.01 0.01 0.02 0.02 0.04 0.07 0.10 0.12 0.12
0.01 0.01 0.00 0.00 0.00 0.00 0.00 0.00 0.00 0.01 0.00 0.01 0.01 0.01 0.02 0.02 0.03 0.04 0.05 0.05 0.05 0.04 0.03 0.04 0.03 0.03 0.03 0.04 0.07 0.06 0.04 0.05 0.04 0.03 0.01 0.01 0.01 0.01 0.02 0.03 0.05 0.08 0.09 0.10
0.00 0.01 0.00 0.00 0.00 0.00 0.00 0.00 0.00 0.01 0.01 0.00 0.00 0.01 0.02 0.03 0.03 0.03 0.03 0.03 0.03 0.02 0.02 0.03 0.03 0.02 0.03 0.03 0.05 0.05 0.04 0.04 0.04 0.04 0.03 0.02 0.02 0.02 0.02 0.02 0.04 0.06 0.07 0.08
0.00 0.00 0.00 0.00 0.00 0.00 0.00 0.00 0.00 0.00 0.01 0.00 0.00 0.01 0.01 0.02 0.03 0.02 0.02 0.01 0.01 0.01 0.01 0.01 0.01 0.01 0.02 0.02 0.03 0.03 0.04 0.04 0.04 0.05 0.05 0.04 0.03 0.02 0.02 0.02 0.03 0.04 0.06 0.06
0.00 0.00 0.00 0.00 0.00 0.00 0.00 0.01 0.01 0.01 0.01 0.01 0.00 0.00 0.01 0.02 0.03 0.03 0.02 0.01 0.01 0.01 0.01 0.01 0.01 0.01 0.01 0.01 0.02 0.02 0.03 0.03 0.03 0.04 0.04 0.04 0.04 0.03 0.02 0.02 0.02 0.02 0.04 0.05
0.00 0.00 0.00 0.00 0.00 0.00 0.01 0.01 0.01 0.01 0.01 0.01 0.00 0.00 0.00 0.01 0.02 0.04 0.03 0.01 0.01 0.00 0.00 0.00 0.01 0.01 0.01 0.01 0.02 0.02 0.03 0.03 0.02 0.02 0.03 0.03 0.03 0.04 0.03 0.03 0.03 0.03 0.03 0.04
0.01 0.00 0.00 0.00 0.00 0.00 0.00 0.01 0.00 0.01 0.01 0.01 0.00 0.00 0.00 0.00 0.01 0.02 0.04 0.02 0.01 0.01 0.00 0.00 0.00 0.01 0.01 0.01 0.01 0.02 0.03 0.04 0.03 0.03 0.02 0.02 0.03 0.03 0.03 0.03 0.03 0.03 0.03 0.04
0.00 0.00 0.00 0.00 0.00 0.00 0.00 0.01 0.00 0.00 0.00 0.01 0.01 0.01 0.01 0.00 0.00 0.01 0.02 0.03 0.02 0.01 0.01 0.01 0.01 0.01 0.01 0.01 0.02 0.02 0.03 0.04 0.04 0.04 0.03 0.03 0.02 0.02 0.02 0.03 0.03 0.03 0.03 0.03
0.00 0.00 0.00 0.00 0.00 0.00 0.00 0.00 0.00 0.01 0.00 0.01 0.01 0.00 0.00 0.00 0.00 0.01 0.02 0.03 0.03 0.02 0.01 0.01 0.01 0.01 0.02 0.02 0.02 0.03 0.03 0.04 0.04 0.04 0.03 0.03 0.03 0.02 0.02 0.02 0.03 0.03 0.03 0.03
0.01 0.01 0.00 0.00 0.00 0.00 0.00 0.00 0.01 0.01 0.01 0.00 0.00 0.00 0.00 0.00 0.00 0.01 0.02 0.02 0.02 0.02 0.02 0.02 0.02 0.02 0.03 0.03 0.03 0.04 0.04 0.04 0.04 0.04 0.03 0.03 0.03 0.03 0.03 0.03 0.02 0.02 0.02 0.02
0.01 0.01 0.01 0.01 0.01 0.00 0.00 0.00 0.00 0.01 0.01 0.00 0.00 0.00 0.00 0.00 0.00 0.01 0.01 0.02 0.02 0.02 0.02 0.02 0.02 0.02 0.02 0.03 0.03 0.03 0.04 0.03 0.03 0.03 0.03 0.02 0.02 0.02 0.02 0.02 0.02 0.01 0.02 0.02
0.00 0.01 0.01 0.01 0.01 0.00 0.00 0.01 0.00 0.00 0.01 0.00 0.00 0.00 0.00 0.00 0.01 0.01 0.02 0.02 0.02 0.03 0.02 0.01 0.01 0.01 0.01 0.03 0.03 0.03 0.03 0.03 0.03 0.03 0.02 0.01 0.01 0.01 0.01 0.01 0.01 0.01 0.02 0.02
0.01 0.01 0.01 0.01 0.00 0.00 0.01 0.00 0.00 0.01 0.01 0.01 0.00 0.00 0.00 0.00 0.00 0.01 0.02 0.02 0.02 0.02 0.02 0.01 0.01 0.01 0.01 0.02 0.02 0.02 0.03 0.03 0.03 0.02 0.02 0.01 0.01 0.01 0.01 0.01 0.01 0.01 0.01 0.01
0.01 0.01 0.00 0.00 0.00 0.00 0.00 0.00 0.00 0.00 0.00 0.00 0.00 0.00 0.00 0.00 0.00 0.00 0.01 0.01 0.02 0.01 0.01 0.01 0.01 0.01 0.01 0.01 0.02 0.02 0.02 0.02 0.02 0.02 0.02 0.01 0.01 0.01 0.01 0.01 0.01 0.01 0.01 0.01
0.01 0.01 0.00 0.00 0.00 0.00 0.00 0.00 0.00 0.00 0.00 0.00 0.00 0.00 0.00 0.00 0.00 0.00 0.00 0.01 0.01 0.01 0.01 0.01 0.01 0.01 0.01 0.01 0.01 0.01 0.01 0.01 0.02 0.02 0.02 0.01 0.01 0.01 0.01 0.00 0.00 0.00 0.00 0.01
0.00 0.01 0.01 0.01 0.00 0.01 0.01 0.00 0.00 0.00 0.00 0.00 0.00 0.00 0.00 0.00 0.00 0.00 0.00 0.01 0.01 0.01 0.01 0.01 0.00 0.00 0.01 0.01 0.01 0.01 0.01 0.01 0.01 0.01 0.02 0.02 0.01 0.01 0.01 0.00 0.00 0.00 0.00 0.00
0.01 0.00 0.01 0.01 0.00 0.00 0.00 0.00 0.00 0.00 0.00 0.00 0.00 0.00 0.00 0.00 0.00 0.00 0.00 0.00 0.00 0.00 0.00 0.00 0.00 0.00 0.00 0.01 0.01 0.01 0.01 0.01 0.01 0.01 0.01 0.01 0.02 0.01 0.01 0.01 0.01 0.00 0.00 0.01
0.00 0.01 0.01 0.01 0.01 0.00 0.00 0.00 0.00 0.00 0.00 0.00 0.00 0.00 0.00 0.00 0.00 0.00 0.00 0.00 0.00 0.00 0.00 0.00 0.00 0.00 0.00 0.00 0.01 0.01 0.01 0.01 0.01 0.01 0.01 0.00 0.01 0.01 0.01 0.01 0.01 0.01 0.01 0.01
0.00 0.01 0.02 0.02 0.01 0.00 0.00 0.00 0.00 0.00 0.00 0.00 0.00 0.00 0.00 0.00 0.00 0.00 0.00 0.00 0.00 0.00 0.00 0.00 0.00 0.00 0.00 0.00 0.00 0.00 0.01 0.01 0.01 0.01 0.01 0.00 0.00 0.00 0.01 0.01 0.02 0.02 0.02 0.01
0.01 0.02 0.02 0.01 0.01 0.00 0.00 0.00 0.00 0.00 0.00 0.00 0.00 0.00 0.00 0.00 0.00 0.00 0.00 0.00 0.00 0.00 0.00 0.00 0.00 0.00 0.00 0.00 0.00 0.00 0.00 0.00 0.00 0.00 0.00 0.00 0.00 0.00 0.00 0.00 0.01 0.01 0.02 0.01
0.00 0.00 0.01 0.01 0.01 0.00 0.00 0.00 0.00 0.00 0.00 0.00 0.00 0.00 0.00 0.00 0.00 0.00 0.00 0.00 0.00 0.00 0.00 0.00 0.00 0.00 0.00 0.00 0.00 0.00 0.00 0.00 0.00 0.00 0.00 0.00 0.00 0.00 0.00 0.00 0.00 0.00 0.01 0.01
0.00 0.00 0.00 0.00 0.00 0.00 0.00 0.00 0.00 0.00 0.00 0.00 0.00 0.00 0.00 0.00 0.00 0.00 0.00 0.00 0.00 0.00 0.00 0.00 0.00 0.00 0.00 0.00 0.00 0.00 0.00 0.00 0.00 0.00 0.00 0.00 0.00 0.00 0.00 0.00 0.00 0.01 0.01 0.01
0.00 0.00 0.00 0.00 0.00 0.00 0.00 0.00 0.00 0.00 0.00 0.00 0.00 0.00 0.00 0.00 0.00 0.00 0.00 0.00 0.00 0.00 0.00 0.00 0.00 0.00 0.00 0.00 0.00 0.01 0.01 0.01 0.00 0.00 0.00 0.00 0.00 0.00 0.00 0.00 0.00 0.01 0.01 0.01
0.00 0.00 0.01 0.01 0.00 0.00 0.00 0.00 0.00 0.00 0.00 0.00 0.00 0.00 0.00 0.00 0.00 0.00 0.00 0.00 0.00 0.00 0.00 0.00 0.00 0.00 0.00 0.00 0.00 0.01 0.01 0.01 0.00 0.00 0.00 0.00 0.00 0.00 0.00 0.00 0.00 0.00 0.00 0.01
0.00 0.00 0.01 0.01 0.01 0.01 0.01 0.01 0.00 0.00 0.00 0.00 0.00 0.00 0.00 0.00 0.00 0.00 0.00 0.00 0.00 0.00 0.00 0.00 0.00 0.00 0.00 0.00 0.00 0.00 0.00 0.00 0.00 0.00 0.00 0.00 0.00 0.00 0.00 0.00 0.00 0.00 0.00 0.00
MSLP
1023.78 1024.37 1024.91 1025.37 1025.71 1025.97 1026.14 1026.27 1026.38 1026.53 1026.71 1026.95 1027.25 1027.57 1027.91 1028.23 1028.53 1028.77 1028.98 1029.14 1029.29 1029.45 1029.63 1029.85 1030.11 1030.43 1030.78 1031.14 1031.50 1031.84 1032.13 1032.36 1032.55 1032.68 1032.77 1032.82 1032.85 1032.88 1032.90 1032.92 1032.94 1032.96 1032.99 1033.02
1024.78 1025.22 1025.57 1025.84 1026.03 1026.16 1026.27 1026.37 1026.48 1026.63 1026.80 1027.00 1027.21 1027.41 1027.60 1027.77 1027.93 1028.08 1028.24 1028.41 1028.60 1028.82 1029.08 1029.36 1029.67 1029.99 1030.31 1030.63 1030.95 1031.25 1031.53 1031.78 1032.00 1032.19 1032.33 1032.43 1032.48 1032.49 1032.47 1032.42 1032.37 1032.33 1032.31 1032.33
1025.70 1025.98 1026.17 1026.29 1026.38 1026.45 1026.55 1026.67 1026.82 1026.99 1027.14 1027.27 1027.34 1027.36 1027.34 1027.30 1027.27 1027.27 1027.34 1027.49 1027.71 1027.99 1028.33 1028.68 1029.02 1029.35 1029.66 1029.94 1030.20 1030.46 1030.72 1030.99 1031.24 1031.48 1031.68 1031.82 1031.89 1031.88 1031.82 1031.71 1031.59 1031.48 1031.42 1031.43
1026.47 1026.60 1026.66 1026.68 1026.72 1026.80 1026.93 1027.13 1027.35 1027.54 1027.67 1027.70 1027.61 1027.40 1027.12 1026.81 1026.53 1026.35 1026.30 1026.40 1026.64 1026.98 1027.39 1027.81 1028.20 1028.54 1028.82 1029.06 1029.27 1029.49 1029.73 1029.99 1030.27 1030.55 1030.79 1030.97 1031.06 1031.05 1030.96 1030.80 1030.63 1030.47 1030.38 1030.38
1027.07 1027.07 1027.02 1026.98 1027.01 1027.14 1027.36 1027.66 1027.96 1028.20 1028.30 1028.22 1027.93 1027.48 1026.90 1026.30 1025.76 1025.37 1025.19 1025.22 1025.46 1025.85 1026.33 1026.81 1027.25 1027.60 1027.87 1028.06 1028.23 1028.39 1028.59 1028.85 1029.14 1029.45 1029.73 1029.95 1030.06 1030.06 1029.95 1029.77 1029.57 1029.39 1029.29 1029.30
1027.49 1027.37 1027.24 1027.17 1027.22 1027.42 1027.76 1028.17 1028.57 1028.85 1028.92 1028.73 1028.26 1027.55 1026.69 1025.80 1025.01 1024.42 1024.09 1024.06 1024.29 1024.71 1025.24 1025.79 1026.26 1026.63 1026.88 1027.03 1027.14 1027.25 1027.42 1027.65 1027.94 1028.27 1028.58 1028.83 1028.97 1028.99 1028.89 1028.71 1028.50 1028.32 1028.22 1028.25
1027.77 1027.55 1027.35 1027.26 1027.35 1027.63 1028.07 1028.60 1029.08 1029.40 1029.45 1029.16 1028.52 1027.60 1026.50 1025.37 1024.35 1023.58 1023.13 1023.03 1023.24 1023.69 1024.26 1024.84 1025.33 1025.70 1025.93 1026.05 1026.10 1026.17 1026.28 1026.49 1026.77 1027.10 1027.43 1027.71 1027.88 1027.92 1027.84 1027.68 1027.49 1027.33 1027.25 1027.30
1027.97 1027.65 1027.39 1027.30 1027.41 1027.76 1028.29 1028.90 1029.46 1029.80 1029.83 1029.47 1028.71 1027.63 1026.35 1025.03 1023.85 1022.94 1022.40 1022.24 1022.43 1022.87 1023.45 1024.05 1024.55 1024.91 1025.11 1025.18 1025.18 1025.19 1025.27 1025.43 1025.70 1026.02 1026.36 1026.65 1026.85 1026.92 1026.87 1026.73 1026.57 1026.44 1026.39 1026.46
1028.14 1027.75 1027.45 1027.34 1027.48 1027.86 1028.44 1029.09 1029.68 1030.04 1030.04 1029.64 1028.81 1027.63 1026.25 1024.83 1023.56 1022.57 1021.96 1021.76 1021.91 1022.34 1022.90 1023.47 1023.94 1024.26 1024.42 1024.44 1024.40 1024.35 1024.38 1024.51 1024.75 1025.06 1025.39 1025.68 1025.89 1025.98 1025.96 1025.86 1025.73 1025.63 1025.61 1025.71
1028.35 1027.92 1027.60 1027.47 1027.60 1027.97 1028.54 1029.19 1029.77 1030.11 1030.09 1029.66 1028.81 1027.61 1026.21 1024.77 1023.48 1022.47 1021.83 1021.59 1021.71 1022.08 1022.58 1023.09 1023.50 1023.75 1023.84 1023.81 1023.71 1023.62 1023.60 1023.69 1023.90 1024.18 1024.50 1024.78 1024.99 1025.10 1025.10 1025.02 1024.92 1024.86 1024.87 1025.00
1028.66 1028.24 1027.91 1027.76 1027.84 1028.17 1028.67 1029.25 1029.75 1030.03 1029.98 1029.54 1028.71 1027.55 1026.20 1024.82 1023.58 1022.60 1021.97 1021.70 1021.76 1022.04 1022.44 1022.84 1023.15 1023.31 1023.32 1023.21 1023.06 1022.92 1022.86 1022.92 1023.09 1023.34 1023.63 1023.90 1024.10 1024.21 1024.22 1024.17 1024.11 1024.08 1024.13 1024.28
1029.12 1028.73 1028.42 1028.24 1028.26 1028.48 1028.86 1029.30 1029.67 1029.85 1029.74 1029.29 1028.49 1027.42 1026.19 1024.92 1023.78 1022.87 1022.26 1021.97 1021.95 1022.12 1022.39 1022.64 1022.81 1022.85 1022.76 1022.58 1022.36 1022.19 1022.10 1022.12 1022.26 1022.48 1022.74 1022.99 1023.18 1023.29 1023.32 1023.30 1023.27 1023.28 1023.37 1023.56
1029.74 1029.44 1029.15 1028.94 1028.86 1028.94 1029.12 1029.35 1029.54 1029.57 1029.37 1028.90 1028.16 1027.19 1026.10 1024.99 1023.98 1023.16 1022.59 1022.27 1022.17 1022.21 1022.32 1022.40 1022.41 1022.31 1022.11 1021.85 1021.59 1021.38 1021.26 1021.27 1021.38 1021.58 1021.81 1022.04 1022.22 1022.33 1022.39 1022.40 1022.42 1022.49 1022.63 1022.88
1030.55 1030.34 1030.08 1029.82 1029.62 1029.50 1029.45 1029.42 1029.36 1029.20 1028.89 1028.38 1027.68 1026.83 1025.89 1024.95 1024.10 1023.39 1022.86 1022.52 1022.32 1022.23 1022.16 1022.07 1021.91 1021.67 1021.37 1021.04 1020.74 1020.50 1020.38 1020.37 1020.47 1020.65 1020.87 1021.09 1021.27 1021.40 1021.49 1021.56 1021.65 1021.79 1022.01 1022.32
1031.51 1031.40 1031.15 1030.83 1030.47 1030.12 1029.79 1029.47 1029.14 1028.75 1028.29 1027.72 1027.06 1026.32 1025.54 1024.78 1024.08 1023.48 1023.00 1022.63 1022.35 1022.12 1021.89 1021.63 1021.31 1020.95 1020.56 1020.18 1019.86 1019.62 1019.50 1019.50 1019.60 1019.78 1019.99 1020.20 1020.40 1020.57 1020.71 1020.85 1021.03 1021.26 1021.57 1021.97
1032.57 1032.52 1032.27 1031.85 1031.32 1030.71 1030.08 1029.45 1028.83 1028.21 1027.59 1026.97 1026.33 1025.69 1025.06 1024.46 1023.91 1023.42 1022.99 1022.61 1022.25 1021.90 1021.53 1021.12 1020.68 1020.23 1019.78 1019.38 1019.06 1018.84 1018.74 1018.75 1018.86 1019.05 1019.26 1019.49 1019.72 1019.93 1020.14 1020.37 1020.65 1020.99 1021.40 1021.88
1033.62 1033.60 1033.30 1032.76 1032.02 1031.16 1030.24 1029.31 1028.42 1027.58 1026.83 1026.14 1025.53 1024.99 1024.49 1024.05 1023.63 1023.24 1022.86 1022.47 1022.06 1021.61 1021.14 1020.63 1020.11 1019.60 1019.13 1018.74 1018.44 1018.26 1018.19 1018.24 1018.37 1018.56 1018.79 1019.04 1019.29 1019.56 1019.85 1020.17 1020.55 1020.99 1021.49 1022.06
1034.53 1034.47 1034.08 1033.39 1032.46 1031.36 1030.18 1029.00 1027.88 1026.88 1026.02 1025.31 1024.74 1024.29 1023.92 1023.61 1023.31 1023.01 1022.67 1022.28 1021.84 1021.33 1020.79 1020.22 1019.67 1019.15 1018.70 1018.34 1018.10 1017.97 1017.95 1018.03 1018.19 1018.39 1018.63 1018.90 1019.18 1019.50 1019.85 1020.26 1020.72 1021.25 1021.83 1022.44
1035.13 1034.97 1034.45 1033.61 1032.50 1031.21 1029.84 1028.48 1027.23 1026.13 1025.23 1024.54 1024.03 1023.68 1023.43 1023.23 1023.04 1022.81 1022.51 1022.13 1021.66 1021.13 1020.56 1019.98 1019.43 1018.94 1018.54 1018.25 1018.07 1018.01 1018.05 1018.17 1018.34 1018.55 1018.80 1019.07 1019.37 1019.71 1020.11 1020.57 1021.09 1021.68 1022.30 1022.93
1035.26 1034.95 1034.29 1033.30 1032.06 1030.65 1029.18 1027.75 1026.46 1025.36 1024.50 1023.87 1023.46 1023.22 1023.08 1022.98 1022.87 1022.69 1022.43 1022.05 1021.59 1021.05 1020.48 1019.92 1019.41 1018.98 1018.66 1018.45 1018.35 1018.36 1018.45 1018.59 1018.78 1018.99 1019.23 1019.49 1019.78 1020.13 1020.55 1021.03 1021.58 1022.17 1022.79 1023.40
1034.81 1034.34 1033.53 1032.43 1031.12 1029.68 1028.21 1026.83 1025.61 1024.61 1023.86 1023.36 1023.07 1022.94 1022.90 1022.89 1022.84 1022.70 1022.45 1022.08 1021.63 1021.10 1020.56 1020.05 1019.60 1019.25 1019.01 1018.89 1018.88 1018.95 1019.08 1019.25 1019.43 1019.63 1019.84 1020.08 1020.35 1020.68 1021.08 1021.55 1022.08 1022.65 1023.23 1023.78
1033.75 1033.10 1032.18 1031.03 1029.72 1028.35 1027.00 1025.76 1024.72 1023.90 1023.33 1023.00 1022.85 1022.84 1022.89 1022.94 1022.92 1022.80 1022.56 1022.20 1021.76 1021.27 1020.77 1020.32 1019.95 1019.69 1019.55 1019.52 1019.57 1019.69 1019.86 1020.03 1020.21 1020.38 1020.56 1020.76 1021.00 1021.29 1021.65 1022.08 1022.57 1023.08 1023.59 1024.05
1032.12 1031.32 1030.33 1029.19 1027.98 1026.77 1025.63 1024.63 1023.84 1023.27 1022.92 1022.77 1022.77 1022.86 1022.98 1023.06 1023.06 1022.94 1022.70 1022.36 1021.94 1021.50 1021.07 1020.70 1020.43 1020.26 1020.20 1020.25 1020.36 1020.52 1020.70 1020.87 1021.03 1021.18 1021.32 1021.48 1021.67 1021.92 1022.23 1022.61 1023.02 1023.46 1023.88 1024.24
1030.06 1029.15 1028.15 1027.10 1026.05 1025.07 1024.21 1023.52 1023.02 1022.71 1022.59 1022.62 1022.75 1022.92 1023.08 1023.17 1023.16 1023.04 1022.82 1022.50 1022.13 1021.76 1021.42 1021.15 1020.97 1020.90 1020.93 1021.04 1021.20 1021.38 1021.56 1021.72 1021.86 1021.97 1022.08 1022.20 1022.36 1022.57 1022.83 1023.15 1023.50 1023.85 1024.17 1024.42
1027.76 1026.80 1025.85 1024.94 1024.12 1023.42 1022.87 1022.49 1022.28 1022.23 1022.32 1022.49 1022.71 1022.92 1023.09 1023.17 1023.15 1023.03 1022.83 1022.57 1022.28 1022.00 1021.78 1021.63 1021.57 1021.60 1021.71 1021.87 1022.06 1022.25 1022.42 1022.56 1022.66 1022.75 1022.84 1022.94 1023.07 1023.25 1023.49 1023.75 1024.04 1024.31 1024.54 1024.70
1025.45 1024.50 1023.64 1022.92 1022.34 1021.93 1021.69 1021.60 1021.65 1021.81 1022.04 1022.30 1022.56 1022.77 1022.91 1022.97 1022.95 1022.85 1022.69 1022.52 1022.35 1022.21 1022.14 1022.13 1022.21 1022.34 1022.52 1022.73 1022.93 1023.12 1023.27 1023.38 1023.46 1023.53 1023.60 1023.70 1023.83 1024.00 1024.21 1024.45 1024.69 1024.90 1025.06 1025.13
Thickness
5550 5546 5538 5536 5538 5542 5541 5539 5536 5537 5537 5537 5539 5544 5551 5551 5548 5548 5549 5550 5551 5552 5555 5554 5554 5552 5551 5549 5548 5546 5544 5543 5542 5540 5539 5537 5536 5535 5534 5534 5533 5532 5531 5529
5544 5537 5533 5534 5535 5536 5536 5534 5529 5530 5531 5532 5532 5538 5547 5547 5547 5548 5548 5547 5547 5547 5548 5549 5548 5546 5545 5544 5542 5540 5538 5537 5536 5534 5532 5531 5529 5527 5526 5525 5524 5524 5523 5521
5541 5531 5531 5534 5532 5534 5530 5526 5525 5524 5523 5526 5525 5540 5547 5549 5545 5547 5546 5545 5543 5543 5543 5543 5542 5540 5538 5538 5537 5536 5534 5531 5529 5527 5525 5523 5521 5519 5517 5516 5516 5515 5515 5513
5525 5524 5529 5530 5526 5528 5527 5523 5521 5520 5517 5514 5518 5523 5542 5541 5541 5545 5545 5542 5539 5538 5538 5537 5537 5536 5534 5534 5532 5530 5528 5525 5523 5521 5519 5517 5515 5513 5511 5510 5508 5507 5506 5505
5523 5519 5523 5524 5521 5520 5519 5517 5515 5515 5514 5509 5509 5511 5531 5533 5541 5546 5545 5542 5538 5535 5534 5533 5533 5532 5531 5529 5527 5525 5523 5520 5518 5516 5514 5511 5509 5507 5505 5503 5502 5500 5499 5498
5517 5516 5515 5516 5515 5515 5514 5514 5512 5505 5504 5506 5510 5506 5522 5526 5540 5545 5544 5540 5536 5533 5530 5529 5529 5527 5526 5524 5522 5519 5517 5515 5513 5510 5508 5506 5503 5501 5499 5497 5495 5493 5492 5490
5522 5518 5512 5510 5516 5514 5512 5509 5500 5500 5488 5498 5502 5501 5518 5536 5537 5539 5538 5535 5531 5528 5526 5524 5524 5522 5521 5519 5517 5515 5512 5510 5507 5504 5502 5500 5498 5496 5494 5492 5489 5487 5485 5483
5521 5519 5509 5505 5509 5508 5507 5508 5500 5500 5495 5493 5496 5500 5527 5536 5534 5531 5529 5527 5525 5523 5521 5520 5519 5517 5516 5514 5512 5510 5507 5504 5501 5498 5496 5494 5492 5490 5488 5486 5483 5481 5478 5476
5511 5515 5506 5504 5503 5505 5505 5496 5497 5484 5469 5474 5493 5500 5519 5534 5533 5531 5528 5525 5523 5521 5518 5517 5515 5513 5511 5509 5507 5505 5502 5499 5495 5493 5490 5488 5486 5484 5482 5480 5477 5474 5471 5469
5507 5506 5503 5499 5502 5499 5498 5493 5485 5481 5485 5487 5495 5502 5518 5536 5535 5531 5526 5523 5521 5519 5515 5513 5510 5508 5505 5503 5501 5499 5497 5494 5491 5488 5485 5483 5480 5478 5476 5473 5470 5467 5465 5462
5502 5502 5498 5496 5492 5494 5491 5489 5485 5476 5475 5482 5488 5516 5528 5529 5530 5526 5523 5520 5517 5514 5511 5508 5506 5503 5500 5497 5495 5493 5491 5489 5486 5482 5479 5476 5475 5472 5470 5466 5463 5460 5458 5455
5496 5492 5490 5493 5489 5487 5488 5490 5484 5486 5478 5471 5480 5512 5534 5525 5522 5519 5518 5516 5514 5510 5507 5504 5501 5498 5495 5492 5490 5488 5486 5483 5481 5478 5474 5471 5469 5466 5463 5460 5457 5454 5451 5447
5494 5491 5491 5500 5492 5482 5482 5484 5481 5477 5469 5460 5469 5512 5528 5521 5519 5516 5512 5511 5509 5507 5504 5500 5497 5494 5492 5489 5486 5484 5481 5479 5476 5473 5469 5465 5463 5459 5457 5453 5450 5446 5443 5439
5492 5484 5491 5504 5506 5488 5481 5479 5475 5473 5467 5465 5479 5507 5526 5525 5519 5515 5511 5509 5505 5503 5500 5497 5495 5492 5490 5486 5483 5480 5477 5474 5471 5467 5464 5460 5457 5453 5450 5446 5443 5439 5435 5431
5483 5478 5474 5478 5479 5477 5479 5480 5473 5474 5479 5483 5499 5498 5524 5525 5517 5513 5510 5507 5504 5503 5500 5497 5494 5491 5487 5483 5479 5476 5472 5469 5465 5461 5457 5454 5450 5446 5443 5439 5435 5431 5427 5423
5473 5471 5467 5470 5472 5469 5472 5480 5478 5478 5479 5481 5489 5503 5524 5518 5512 5509 5508 5505 5502 5502 5500 5497 5493 5490 5486 5482 5477 5472 5467 5463 5458 5454 5451 5447 5442 5438 5435 5431 5427 5423 5419 5415
5462 5461 5462 5467 5458 5468 5480 5496 5490 5487 5489 5491 5498 5519 5521 5515 5513 5510 5507 5505 5502 5501 5499 5495 5492 5488 5484 5479 5474 5468 5463 5457 5452 5448 5444 5439 5435 5431 5427 5423 5419 5415 5411 5407
5458 5451 5443 5443 5459 5487 5519 5509 5502 5499 5500 5497 5505 5513 5513 5513 5509 5505 5504 5502 5501 5499 5496 5493 5489 5486 5481 5475 5469 5465 5459 5452 5447 5442 5438 5433 5428 5424 5419 5415 5412 5408 5403 5399
5456 5450 5433 5432 5448 5470 5504 5503 5495 5497 5509 5509 5504 5510 5509 5505 5500 5507 5510 5505 5502 5499 5496 5491 5487 5481 5476 5470 5465 5459 5454 5447 5442 5437 5432 5427 5422 5417 5412 5408 5404 5400 5396 5392
5446 5443 5433 5425 5450 5475 5521 5508 5497 5500 5510 5519 5508 5509 5506 5498 5501 5515 5514 5506 5500 5495 5490 5486 5480 5475 5470 5465 5460 5454 5448 5443 5438 5433 5428 5422 5416 5411 5407 5402 5397 5393 5389 5385
5437 5432 5431 5428 5439 5469 5502 5493 5493 5503 5523 5524 5510 5508 5501 5496 5508 5510 5505 5500 5495 5490 5485 5480 5474 5469 5465 5459 5454 5448 5443 5439 5434 5427 5421 5415 5410 5405 5400 5396 5391 5386 5381 5376
5448 5438 5431 5424 5438 5483 5498 5484 5497 5518 5520 5515 5507 5503 5499 5498 5500 5497 5495 5492 5488 5483 5479 5473 5468 5464 5458 5452 5447 5443 5438 5434 5427 5420 5415 5409 5404 5399 5394 5388 5383 5378 5373 5368
5454 5468 5463 5466 5495 5509 5494 5498 5503 5502 5504 5505 5501 5498 5493 5490 5489 5489 5487 5484 5481 5477 5472 5467 5461 5457 5452 5446 5442 5437 5433 5426 5419 5413 5408 5402 5396 5391 5386 5381 5375 5369 5364 5359
5448 5453 5456 5458 5484 5491 5487 5488 5490 5489 5491 5494 5491 5489 5485 5483 5483 5480 5478 5476 5472 5469 5464 5459 5454 5449 5446 5440 5435 5430 5425 5418 5412 5406 5401 5395 5390 5384 5378 5372 5367 5361 5356 5350
5458 5441 5444 5454 5476 5479 5486 5484 5487 5486 5482 5480 5479 5477 5475 5473 5473 5471 5470 5468 5464 5461 5456 5450 5446 5443 5440 5433 5427 5422 5416 5410 5404 5399 5394 5388 5382 5376 5370 5364 5358 5353 5349 5343
5450 5448 5454 5479 5483 5478 5490 5487 5482 5478 5476 5474 5471 5469 5466 5463 5464 5463 5461 5459 5455 5451 5446 5441 5437 5434 5430 5424 5419 5413 5407 5402 5396 5391 5385 5379 5373 5367 5361 5355 5349 5345 5339 5334